Back to catalog

COSMOS 1741

AliveMilitaryLEO
NORAD 16681·PAYLOAD·🇷🇺 Russia

Launched Apr 17, 1986 from Plesetsk Cosmodrome

Loading…

Next Passes (next 24 hours)

TLE

FreshSource: Space-Track

Epoch: Sep 14, 2026, 08:54 UTC

1 16681U 86030A   26257.37084761  .00000053  00000-0  28321-4 0  9995
2 16681  74.0212 244.3935 0018053 148.8190 211.4037 14.33949887111993

Track COSMOS 1741 in real time with AllMySat

Download on the App Store